Commit Graph
100 Commits
Author SHA1 Message Date
David Anderson 0dc2ba85e8 Added set_error_filter() 2005-09-09 23:13:34 +00:00
David Anderson de65e65854 added set_error_filter 2005-09-09 23:03:26 +00:00
David Anderson f8aac5e88d Reworked code to support error handling, LogError() is separate from DisplayTrace() implementation 2005-09-09 16:04:44 +00:00
David Anderson 4738c92b8e Committed new debugger with AMX fixes 2005-09-09 03:23:31 +00:00
David Anderson 0552e5ef58 Deprecated jghg2 include 2005-09-07 15:40:46 +00:00
David Anderson ce881a7d30 Fixed bug at18558 (Nijule) 2005-09-07 00:11:10 +00:00
David Anderson 80dd7f034d version bump 2005-09-06 22:28:47 +00:00
David Anderson 5fac746feb compiler fix merge 2005-09-06 22:28:32 +00:00
David Anderson 67f012b74a Fixed bug where static declarations would crash 2005-09-06 21:34:33 +00:00
David Anderson 5705e69abb Fixed bug where level>1 arrays were walked incorrectly 2005-09-06 20:36:02 +00:00
David Anderson 824caab2c5 Fixed bug p1123143748 (Twilight Suzuka) 2005-09-06 03:00:01 +00:00
David Anderson a105bc7402 Fixed bug at18003 (Geesu)
Fixed bug p1123149221 (Twilight Suzuka)
2005-09-06 01:55:41 +00:00
David Anderson e90364c17b Fixed bug at18525 (twistedeuphoria). 2005-09-05 22:05:23 +00:00
David Anderson ac4014ff5a Fixed bug at18473 (Greenberet). 2005-09-05 21:59:44 +00:00
David Anderson ad634924fa Fixed two bugs from at18519 (Lord of Destruction) 2005-09-05 21:43:05 +00:00
David Anderson 4be88a5015 version bump 2005-09-02 07:10:56 +00:00
David Anderson ee02d0b13d this must be off! 2005-09-02 04:07:49 +00:00
David Anderson 2ec084ffa3 Patch for bug at18251 2005-09-02 04:06:47 +00:00
David Anderson 6636c20336 Fixed bug at18250 2005-09-02 03:44:15 +00:00
David Anderson 27c80b00f8 Fix for bug at18293. 2005-09-02 03:28:44 +00:00
David Anderson 6bcb72952c Applied patch for bug at18341 (jtp10181) 2005-09-02 02:46:42 +00:00
David Anderson 0232b0abee Bumped versions 2005-08-31 20:36:41 +00:00
David Anderson 12fd7a9f0d Added new DBI functions
Fixed bugs in field getting
2005-08-31 20:32:29 +00:00
David Anderson 71c6e70706 Updated for new API 2005-08-31 20:08:12 +00:00
David Anderson c5cc94ba98 Added new natives 2005-08-31 04:36:25 +00:00
David Anderson 57ce74c4c7 Bumped version, lowered -O flag 2005-08-30 18:43:11 +00:00
David Anderson 5d6c72bf42 Patch for pausing issues 2005-08-30 07:18:47 +00:00
David Anderson 63b2bbc67e Made more de-allocation safety precautions 2005-08-30 07:15:27 +00:00
David Anderson 12f628e3d7 Fixed bug at18162 (vittu) 2005-08-30 07:00:49 +00:00
David Anderson cd8d800eb7 Fixed bug at17920 (Grasshoper) 2005-08-30 06:59:50 +00:00
David Anderson 160ab3572b Fixed typo at18108 (FireStorm) 2005-08-30 06:57:41 +00:00
David Anderson ac279b37e4 Removed old Makefile 2005-08-26 15:57:50 +00:00
David Anderson 974fdc950e Added new standard makefile 2005-08-26 15:54:42 +00:00
David Anderson 8bb01423b9 Updated api 2005-08-25 09:40:29 +00:00
David Anderson 401a23a298 Updated install script 2005-08-25 09:34:31 +00:00
David Anderson 7ac9ed4b80 *** empty log message *** 2005-08-25 09:27:32 +00:00
David Anderson 6fdcd8ffae Fixed NS build 2005-08-25 09:20:10 +00:00
David Anderson d50a6302e0 ugh 2005-08-25 09:09:35 +00:00
David Anderson 5fd891bc32 Fixed version # 2005-08-25 08:34:26 +00:00
David Anderson 864f7c268e Fixed module for AMD64 2005-08-25 08:34:09 +00:00
David Anderson 4770f28a18 *** empty log message *** 2005-08-25 08:26:28 +00:00
David Anderson 51a4e2bf4e *** empty log message *** 2005-08-25 08:21:07 +00:00
David Anderson c213c771d2 Fixed compression on Linux 2005-08-25 08:20:11 +00:00
David Anderson 0176d3a2ae Actual fix for compression! 2005-08-25 08:02:48 +00:00
David Anderson 92653ceebc Fixes for compression 2005-08-25 07:50:21 +00:00
David Anderson c9051ad364 Fixed includes 2005-08-25 07:34:47 +00:00
David Anderson 94d350118d *** empty log message *** 2005-08-25 07:30:34 +00:00
David Anderson 2e22dde409 Removed extra forwards 2005-08-25 07:16:17 +00:00
David Anderson 4dad81af30 Merged in new ts includes 2005-08-25 07:13:48 +00:00
David Anderson b271b01b13 Synced to Twilight's stuff 2005-08-25 07:12:52 +00:00
David Anderson a17b879380 Merged in original TSFun 2005-08-25 07:09:16 +00:00
David Anderson d661196429 Fixed bug at17860 2005-08-25 00:19:39 +00:00
David Anderson 1114443a43 Fixed for AMD64 compatibility 2005-08-24 18:13:40 +00:00
David Anderson d802a3c961 gcc-3. compat 2005-08-24 07:32:01 +00:00
David Anderson e2226ae809 Fixed linux compiling 2005-08-24 07:16:45 +00:00
David Anderson fd8a27013b CVS Cleanup 2005-08-24 07:07:34 +00:00
David Anderson b12224eabd CVS Cleanup 2005-08-24 07:01:02 +00:00
David Anderson c30c3cf35c CVS cleanup 2005-08-24 06:57:32 +00:00
David Anderson f828cde999 Updated ESF and CS 2005-08-24 06:56:02 +00:00
David Anderson d05c381789 Added cstrike specific switch 2005-08-24 06:39:52 +00:00
David Anderson 245054cf48 Fixed bug at17739 (mysticssjgoku4) 2005-08-24 06:29:12 +00:00
David Anderson da82ce757f Defaulted engine+fm on 2005-08-24 06:19:41 +00:00
David Anderson 4d74743138 Removed esf module 2005-08-24 06:15:41 +00:00
David Anderson c1db39d086 Added Corona Byte's EvolutionX core 2005-08-24 06:13:55 +00:00
David Anderson d516824936 Add copy exclusion filters
Repaired windows builder
Fixed /build to be /rebuild
2005-08-24 05:19:23 +00:00
David Anderson 10328f5f81 fixes 2005-08-24 05:08:05 +00:00
David Anderson d4f09aac74 Wrong, look at the distro. And in the future change for all mod config sets if you do 2005-08-24 03:20:09 +00:00
David Anderson 8f97ed7934 Deleted bad file 2005-08-24 03:14:13 +00:00
David Anderson 1fcf7628a3 Added in real file 2005-08-24 03:13:57 +00:00
David Anderson bdd740f8ab Added makefile 2005-08-24 02:54:39 +00:00
David Anderson 82fed37247 Updated to work on Linux, redesigned core 2005-08-24 02:53:38 +00:00
David Anderson 5b208eb9f5 gcc-3 compat 2005-08-24 02:36:05 +00:00
David Anderson 9be88ffa42 Linux compat, cleaned up newdll 2005-08-23 23:54:54 +00:00
David Anderson f54d112bbb Language sync 2005-08-23 01:24:42 +00:00
David Anderson dd371c4dbe no idea, I changed something though 2005-08-21 22:48:22 +00:00
David Anderson 7ea47c5a96 Fixed a deallocation mismatch with debug plugins in linux 2005-08-21 21:54:14 +00:00
David Anderson 5693d2629e Attempted fix at DEP 2005-08-21 19:30:27 +00:00
David Anderson 24d9e3266e wrong include, added pdata 2005-08-21 16:38:45 +00:00
David Anderson b3b3ce4c2d added more pdata funcs 2005-08-21 16:36:40 +00:00
David Anderson 5882802a3e Added set/get pdata string 2005-08-21 16:33:38 +00:00
David Anderson e9993cce25 amd64 == no more libstdc++ 2005-08-18 08:44:01 +00:00
David Anderson 80bd845182 *** empty log message *** 2005-08-18 08:36:48 +00:00
David Anderson f986202b06 AMD64 no stdc++ support 2005-08-18 08:33:21 +00:00
David Anderson a4168a2096 version bump 2005-08-18 07:53:14 +00:00
David Anderson 3e85589930 Fix for bug at16876 (TheRising) 2005-08-18 07:05:33 +00:00
David Anderson b5a57da29c Fixed linux build (I think) 2005-08-18 07:03:43 +00:00
David Anderson 58fec512e5 Now requires GCC-3 to compile, fixes retarded linking problem 2005-08-18 07:01:47 +00:00
David Anderson a6ca045086 More SDK syncs 2005-08-18 06:41:59 +00:00
David Anderson e401231d25 *** empty log message *** 2005-08-18 06:40:24 +00:00
David Anderson 9ddc24898f same win32 fix 2005-08-18 06:37:50 +00:00
David Anderson f5350c0e0e fix for win32 2005-08-18 06:37:05 +00:00
David Anderson fa64bef511 New SDK for gcc-3 compilations 2005-08-18 06:34:34 +00:00
David Anderson 29bfd81b36 New SDK for gcc-3 compilation 2005-08-18 06:32:59 +00:00
David Anderson 2d2506f1c4 Added memalign include 2005-08-18 01:04:52 +00:00
David Anderson f334fec0a3 Added linux compile of altered JIT 2005-08-18 00:32:08 +00:00
David Anderson 03b6d3e77d Fixed alloc/dealloc mismatches 2005-08-18 00:29:43 +00:00
David Anderson 661f6c9851 Fixed bug at17357 (FireStorm) 2005-08-17 18:16:26 +00:00
David Anderson 593e013572 fixed typo 2005-08-17 17:53:11 +00:00
David Anderson b04498cddb Experimental fix for bug at16815 (karlos) 2005-08-17 17:32:51 +00:00
David Anderson 8648bf32a3 Improved error reporting a bit 2005-08-17 17:21:57 +00:00